Weather History for LTBU - October, 2013

Change the Weather History Date:

Monday, October 7, 2013

  Actual Average (LTBA) Record (LTBA)
Temperature  
Mean Temperature 52 °F -  
Max Temperature 62 °F 70 °F 77 °F (1999)
Min Temperature 42 °F 59 °F 44 °F (2013)
Degree Days  
Heating Degree Days 13    
Growing Degree Days 2 (Base 50)    
Moisture  
Dew Point 41 °F    
Average Humidity 71    
Maximum Humidity 93    
Minimum Humidity 45    
Precipitation  
Precipitation 0.00 in - - ()
Sea Level Pressure  
Sea Level Pressure 30.39 in    
Wind  
Wind Speed 8 mph ()    
Max Wind Speed 15 mph    
Max Gust Speed -    
Visibility 6.2 miles    
Events      
Averages and records for this station are not official NWS values.
T = Trace of Precipitation, MM = Missing Value Source: Averaged Metar Reports

Daily Weather History Graph

Daily Weather History Graph

Search for Another Location

Airport or City:

Trip Planner

Search our weather history database for the weather conditions in past years. The results will help you decide how hot, cold, wet, or windy it might be!

Date:

Astronomy

Oct. 07, 2013 Rise Set
Actual Time 7:11 AM EEST 6:40 PM EEST
Civil Twilight 6:43 AM EEST 7:07 PM EEST
Nautical Twilight 6:11 AM EEST 7:39 PM EEST
Astronomical Twilight 5:39 AM EEST 8:11 PM EEST
Moon 9:41 AM EEST (10/7) 8:08 PM EEST (10/7)
Length of Visible Light 12h 24m
Length of Day
11h 29m
Waxing Crescent, 7% of the Moon is Illuminated
Oct 7
Waxing Crescent
Oct 12
First Quarter
Oct 19
Full
Oct 27
Last Quarter
Nov 3
New

Hourly Weather History & Observations

Time (EEST) Temp. Windchill Dew Point Humidity Pressure Visibility Wind Dir Wind Speed Gust Speed Precip Events Conditions
12:20 AM 42.8 °F 39.3 °F 41.0 °F 93% 30.39 in - NE 5.8 mph - N/A   Clear
12:50 AM 44.6 °F 40.7 °F 41.0 °F 87% 30.39 in - NE 6.9 mph - N/A   Clear
1:20 AM 44.6 °F 39.7 °F 41.0 °F 87% 30.39 in - NE 9.2 mph - N/A   Clear
1:50 AM 42.8 °F 38.6 °F 41.0 °F 93% 30.39 in - NNE 6.9 mph - N/A   Clear
2:20 AM 44.6 °F 39.7 °F 41.0 °F 87% 30.39 in - NNE 9.2 mph - N/A   Clear
2:50 AM 44.6 °F 40.2 °F 41.0 °F 87% 30.39 in - NNE 8.1 mph - N/A   Clear
3:20 AM 42.8 °F 39.3 °F 39.2 °F 87% 30.39 in - North 5.8 mph - N/A   Clear
3:50 AM 44.6 °F 40.2 °F 39.2 °F 81% 30.39 in - NNE 8.1 mph - N/A   Clear
4:20 AM 44.6 °F 40.2 °F 39.2 °F 81% 30.39 in - NNE 8.1 mph - N/A   Clear
4:50 AM 44.6 °F 39.7 °F 39.2 °F 81% 30.39 in - NNE 9.2 mph - N/A   Clear
5:20 AM 42.8 °F 38.6 °F 39.2 °F 87% 30.39 in - North 6.9 mph - N/A   Clear
5:50 AM 42.8 °F 38.6 °F 37.4 °F 81% 30.39 in - North 6.9 mph - N/A   Clear
6:20 AM 42.8 °F 38.6 °F 37.4 °F 81% 30.39 in 6.2 mi North 6.9 mph - N/A   Scattered Clouds
6:50 AM 44.6 °F 39.7 °F 39.2 °F 81% 30.39 in 6.2 mi NNE 9.2 mph - N/A   Mostly Cloudy
7:20 AM 46.4 °F 42.4 °F 41.0 °F 81% 30.39 in 6.2 mi NNE 8.1 mph - N/A   Mostly Cloudy
7:50 AM 46.4 °F 42.9 °F 41.0 °F 81% 30.39 in 6.2 mi NE 6.9 mph - N/A   Mostly Cloudy
8:20 AM 50.0 °F - 41.0 °F 71% 30.42 in 6.2 mi NNE 9.2 mph - N/A   Mostly Cloudy
8:50 AM 50.0 °F - 42.8 °F 76% 30.42 in 6.2 mi NE 6.9 mph - N/A   Mostly Cloudy
9:20 AM 51.8 °F - 42.8 °F 71% 30.42 in 6.2 mi ENE 8.1 mph - N/A   Mostly Cloudy
9:50 AM 51.8 °F - 42.8 °F 71% 30.42 in 6.2 mi ENE 6.9 mph - N/A   Mostly Cloudy
10:20 AM 55.4 °F - 39.2 °F 54% 30.42 in 6.2 mi East 9.2 mph - N/A   Mostly Cloudy
10:50 AM 55.4 °F - 41.0 °F 58% 30.42 in 6.2 mi East 9.2 mph - N/A   Mostly Cloudy
11:20 AM 57.2 °F - 41.0 °F 55% 30.42 in 6.2 mi East 6.9 mph - N/A   Mostly Cloudy
11:50 AM 57.2 °F - 41.0 °F 55% 30.42 in 6.2 mi East 9.2 mph - N/A   Mostly Cloudy
12:20 PM 59.0 °F - 39.2 °F 48% 30.42 in - East 9.2 mph - N/A   Clear
12:50 PM 59.0 °F - 39.2 °F 48% 30.42 in - East 9.2 mph - N/A   Clear
1:20 PM 59.0 °F - 41.0 °F 51% 30.39 in - NE 10.4 mph - N/A   Clear
1:50 PM 60.8 °F - 41.0 °F 48% 30.39 in - NNE 10.4 mph - N/A   Clear
2:20 PM 60.8 °F - 41.0 °F 48% 30.39 in - East 9.2 mph - N/A   Clear
3:20 PM 60.8 °F - 41.0 °F 48% 30.39 in - ESE 9.2 mph - N/A   Clear
3:50 PM 62.6 °F - 41.0 °F 45% 30.39 in - ENE 12.7 mph - N/A   Clear
4:20 PM 60.8 °F - 41.0 °F 48% 30.36 in - East 11.5 mph - N/A   Clear
4:50 PM 60.8 °F - 41.0 °F 48% 30.36 in - NE 12.7 mph - N/A   Clear
5:20 PM 59.0 °F - 42.8 °F 55% 30.36 in - ENE 15.0 mph - N/A   Clear
5:50 PM 57.2 °F - 42.8 °F 59% 30.36 in 6.2 mi ENE 15.0 mph - N/A   Partly Cloudy
6:20 PM 55.4 °F - 42.8 °F 63% 30.39 in - ENE 15.0 mph - N/A   Clear
6:50 PM 53.6 °F - 42.8 °F 67% 30.39 in - NE 10.4 mph - N/A   Clear
7:20 PM 51.8 °F - 42.8 °F 71% 30.39 in - NE 10.4 mph - N/A   Clear
7:50 PM 50.0 °F - 42.8 °F 76% 30.39 in - NE 10.4 mph - N/A   Clear
8:20 PM 50.0 °F - 42.8 °F 76% 30.39 in - NE 11.5 mph - N/A   Clear
8:50 PM 48.2 °F - 42.8 °F 82% 30.39 in - ENE 8.1 mph - N/A   Clear
9:20 PM 48.2 °F - 42.8 °F 82% 30.39 in - East 5.8 mph - N/A   Clear
9:50 PM 48.2 °F - 42.8 °F 82% 30.39 in - NE 8.1 mph - N/A   Clear
10:20 PM 46.4 °F 41.9 °F 42.8 °F 87% 30.39 in - NNE 9.2 mph - N/A   Clear
10:50 PM 46.4 °F 42.4 °F 41.0 °F 81% 30.42 in - NNE 8.1 mph - N/A   Clear
11:20 PM 46.4 °F 41.9 °F 42.8 °F 87% 30.39 in - NNE 9.2 mph - N/A   Clear
11:50 PM 46.4 °F 41.5 °F 42.8 °F 87% 30.39 in - NNE 10.4 mph - N/A   Clear